Weather History for Jackson, TN

Change the Weather History Date:

Saturday, December 7, 2013

  Actual Average Record
Temperature  
Mean Temperature 25 °F 43 °F  
Max Temperature 28 °F 53 °F 72 °F (1966)
Min Temperature 22 °F 33 °F 10 °F (1950)
Degree Days  
Heating Degree Days 40 22  
Month to date heating degree days 122 151  
Since 1 July heating degree days 912 818  
Cooling Degree Days 0 0  
Month to date cooling degree days 4 0  
Year to date cooling degree days 1596 1697  
Moisture  
Dew Point 21 °F    
Average Humidity 83    
Maximum Humidity 88    
Minimum Humidity 78    
Precipitation  
Precipitation T in 0.19 in 2.10 in (1978)
Month to date precipitation 1.86 1.28  
Year to date precipitation 55.43 49.20  
Snow  
Snow 0.00 in 0.00 in T in (1976)
Month to date snowfall T 0.0  
Since 1 July snowfall T 0.1  
Snow Depth 0.00 in    
Sea Level Pressure  
Sea Level Pressure 30.48 in    
Wind  
Wind Speed 13 mph (NNE)    
Max Wind Speed 20 mph    
Max Gust Speed 23 mph    
Visibility 10 miles    
Events      
T = Trace of Precipitation, MM = Missing Value Source: NWS Daily Summary

Daily Weather History Graph

Daily Weather History Graph

Search for Another Location

Airport:

Trip Planner

Search our weather history database for the weather conditions in past years. The results will help you decide how hot, cold, wet, or windy it might be!

Date:

Astronomy

Dec. 07, 2013 Rise Set
Actual Time 6:52 AM CST 4:42 PM CST
Civil Twilight 6:23 AM CST 5:10 PM CST
Nautical Twilight 5:52 AM CST 5:42 PM CST
Astronomical Twilight 5:21 AM CST 6:13 PM CST
Moon 10:44 AM CST (12/7) 10:15 PM CST (12/7)
Length of Visible Light 10h 46m
Length of Day
9h 50m
Waxing Crescent, 29% of the Moon is Illuminated
Dec 7
Waxing Crescent
Dec 9
First Quarter
Dec 17
Full
Dec 25
Last Quarter
Jan 1
New

Hourly Weather History & Observations

Time (CST) Temp. Windchill Dew Point Humidity Pressure Visibility Wind Dir Wind Speed Gust Speed Precip Events Conditions
12:53 AM 26.1 °F 14.0 °F 21.9 °F 84% 30.45 in 10.0 mi North 15.0 mph - N/A   Overcast
1:53 AM 26.1 °F 15.6 °F 21.9 °F 84% 30.46 in 10.0 mi North 11.5 mph - N/A   Overcast
2:53 AM 25.0 °F 13.1 °F 21.0 °F 85% 30.47 in 10.0 mi North 13.8 mph - N/A   Overcast
3:53 AM 24.1 °F 11.0 °F 21.0 °F 88% 30.48 in 10.0 mi North 16.1 mph 23.0 mph N/A   Overcast
4:53 AM 24.1 °F 11.5 °F 19.0 °F 81% 30.50 in 10.0 mi NNE 15.0 mph - N/A   Overcast
5:04 AM 24.8 °F 11.9 °F 19.4 °F 80% 30.49 in 10.0 mi NNE 16.1 mph - N/A   Overcast
5:53 AM 23.0 °F 9.6 °F 19.0 °F 85% 30.53 in 10.0 mi North 16.1 mph - N/A   Overcast
6:53 AM 23.0 °F 12.4 °F 18.0 °F 81% 30.54 in 10.0 mi NNE 10.4 mph - N/A   Overcast
7:53 AM 23.0 °F 11.1 °F 18.0 °F 81% 30.56 in 10.0 mi NNE 12.7 mph - N/A   Overcast
8:22 AM 23.0 °F 11.7 °F 17.6 °F 80% 30.55 in 10.0 mi NNE 11.5 mph - N/A   Overcast
8:53 AM 23.0 °F 11.7 °F 18.0 °F 81% 30.57 in 10.0 mi NNE 11.5 mph - N/A   Overcast
9:53 AM 24.1 °F 12.5 °F 19.0 °F 81% 30.58 in 10.0 mi North 12.7 mph - N/A   Overcast
10:53 AM 25.0 °F 12.6 °F 19.9 °F 81% 30.57 in 10.0 mi NNE 15.0 mph - N/A   Overcast
11:53 AM 26.1 °F 14.5 °F 21.0 °F 81% 30.54 in 10.0 mi NE 13.8 mph - N/A   Overcast
12:53 PM 27.0 °F 15.6 °F 21.9 °F 81% 30.52 in 10.0 mi NNE 13.8 mph - N/A   Overcast
1:53 PM 27.0 °F 15.2 °F 21.9 °F 81% 30.49 in 10.0 mi NNE 15.0 mph - N/A   Overcast
2:53 PM 28.0 °F 18.1 °F 23.0 °F 81% 30.49 in 10.0 mi NNE 11.5 mph - N/A   Overcast
3:53 PM 28.0 °F 17.5 °F 24.1 °F 85% 30.49 in 10.0 mi NE 12.7 mph - N/A   Overcast
4:53 PM 28.0 °F 18.6 °F 24.1 °F 85% 30.47 in 10.0 mi NE 10.4 mph - N/A   Overcast
5:53 PM 28.0 °F 17.0 °F 23.0 °F 81% 30.45 in 10.0 mi NE 13.8 mph 23.0 mph N/A   Overcast
6:53 PM 28.0 °F 17.5 °F 24.1 °F 85% 30.44 in 10.0 mi ENE 12.7 mph - N/A   Overcast
7:46 PM 26.6 °F 15.2 °F 23.0 °F 86% 30.42 in 10.0 mi ENE 13.8 mph 18.4 mph N/A   Overcast
7:53 PM 27.0 °F 15.6 °F 23.0 °F 85% 30.41 in 10.0 mi ENE 13.8 mph - N/A   Overcast
8:53 PM 27.0 °F 17.3 °F 23.0 °F 85% 30.40 in 10.0 mi ENE 10.4 mph - N/A   Overcast
9:53 PM 28.0 °F 21.7 °F 24.1 °F 85% 30.40 in 9.0 mi ENE 5.8 mph - N/A   Overcast
10:53 PM 28.0 °F 19.3 °F 25.0 °F 88% 30.37 in 8.0 mi NE 9.2 mph - 0.00 in   Overcast
11:53 PM 28.0 °F 18.6 °F 25.0 °F 88% 30.33 in 6.0 mi NE 10.4 mph - 0.00 in   Overcast